Regional Weather Roundup
Issued by NWS Grand Forks, ND

Home | Current Version | Previous Version | Text Only | Print | Product List | Glossary Off
Versions: 1 2 3 4 5 6 7 8 9 10 11 12 13 14 15 16 17 18 19 20 21 22 23 24 25 26 27 28 29 30 31 32 33 34 35 36 37 38 39 40 41 42 43 44 45 46 47 48 49 50

000
ASUS43 KFGF 071531
RWRFGF
PRAIRIE TO PINES  WEATHER ROUNDUP
NATIONAL WEATHER SERVICE EASTERN NORTH DAKOTA/GRAND FORKS ND
900 AM CST SUN FEB 07 2016

 **SATELLITE DATA USED TO AUGMENT SKY COVER AT AUTOMATED STATIONS**
 *****  WEATHER ACROSS EASTERN NORTH DAKOTA  *****

CITY           SKY/WX    TMP DP  RH WIND       PRES   REMARKS
GRAND FORKS    LGT SNOW  33  30  88 N20G30    29.58R VSB 3/4 WCI  21
GRAND FRKS AFB LGT RAIN  35  31  84 NW15G23   29.55R
GRAND FRKS NWS   N/A     32 N/A N/A N20         N/A  WCI  20
DEVILS LAKE    LGT SNOW  32  28  86 NW32G40   29.63R FOG     WCI  17
FARGO          CLOUDY    36  28  73 W24G31    29.60S
WAHPETON ARPT  MOSUNNY   36  27  69 W21G26    29.64S
$$

 ***** WEATHER ACROSS CENTRAL AND WESTERN NORTH DAKOTA  *****

CITY           SKY/WX    TMP DP  RH WIND       PRES   REMARKS
BISMARCK       CLOUDY    35  23  61 NW30G46   29.83R WCI  22
MINOT          FLURRIES  30  15  53 NW40G56   29.82R WCI  13
JAMESTOWN      FLURRIES  33  28  81 NW24G32   29.66R WCI  20
MINOT AFB      CLOUDY    27  16  63 NW44G58   29.79R SQUALL  WCI   8
GARRISON         N/A     29  21  72 NW43G56   29.80R WCI  11
WILLISTON      MOCLDY    31  21  66 NW38G51   30.04R WCI  15
DICKINSON      LGT SNOW  28  21  75 NW33G44   29.95R WCI  11
HETTINGER      CLOUDY    30  19  63 NW36G51   29.98R WCI  14
$$

 *****  OTHER AIRPORT OBSERVATIONS IN OUR AREA  *****

CITY           SKY/WX    TMP DP  RH WIND       PRES   REMARKS
WALHALLA       FAIR      27  25  93 NW29G38   29.64R WCI  11
GRAFTON AIRPOR LGT SNOW  32  30  93 N24G30    29.57R WCI  19
VALLEY CITY AR FLURRIES  34  32  93 NW22G32   29.66R WCI  22
CANDO          CLOUDY    32  25  74 NW33G44   29.67R WCI  17
CAVALIER APRT  LGT RAIN  28  25  86 N24G33    29.58R WCI  14
GWINNER        CLOUDY    36  30  80 W25       29.68F
SHEYENNE NWR     N/A     36  26  67 W20       29.95S
ROLLA          CLOUDY    23  18  80 NW37G56   29.69R WCI   4
 ***** THE ABOVE OBSERVATIONS ARE NON NWS ARE NOT QUALITY
       CONTROLLED AND MAY MIS-REPORT RAIN FOR SNOW...
$$

  *****  WEATHER ACROSS NORTHERN MINNESOTA  *****

CITY           SKY/WX    TMP DP  RH WIND       PRES   REMARKS
FLAG ISLAND    LGT SNOW  28  27  93 NW15      29.40R WCI  17
WARROAD        LGT SNOW  28  25  86 W14G20    29.44R WCI  17
ROSEAU         LGT SNOW  28  23  80 NW13      29.46R WCI  18
HALLOCK        SNOW      27  23  86 NW33      29.55R VSB 1/2 WCI   9
THF RVR FALLS  CLOUDY    30  27  86 NW20G26   29.53R WCI  18
BAUDETTE       LGT SNOW  29  25  85 NW15      29.41R VSB 1   WCI  18
WASKISH        CLOUDY    32  28  86 W14       29.43R WCI  22
CROOKSTON      LGT SNOW  32  32 100 NW24      29.56R WCI  19
STEPHEN NDAWN    N/A     28  27  93 NW25        N/A  WCI  14
GREENBUSH NDAW   N/A     27  25  93 NW22        N/A  WCI  12
$$
  *****  WEATHER ACROSS CENTRAL AND WEST MINNESOTA  *****

CITY           SKY/WX    TMP DP  RH WIND       PRES   REMARKS
FOSSTON        CLOUDY    30  28  93 W17G23    29.52R WCI  18
BEMIDJI        LGT SNOW  32  31  96 W17G23    29.46S WCI  21
PARK RAPIDS    LGT SNOW  33  29  85 W22       29.50S FOG     WCI  21
ELBOW LAKE     PTSUNNY   34  27  75 NW20G26   29.64S HAZE    WCI  22
WADENA         LGT RAIN  34  27  75 W20G29    29.54F WCI  22
DETROIT LAKES  MIX PCPN  32  30  93 W20G32    29.56F WCI  20
MOORHEAD       DRIZZLE   36  28  75 W21G28    29.61S
FERGUS FALLS   CLOUDY    34  27  75 W20G26    29.64S WCI  22
MORRIS MN      MOSUNNY   36  27  69 W25G32    29.65S
STAPLES        CLOUDY    34  27  75 W16G28    29.54S WCI  23
$$
  *****  WEATHER ELSEWHERE ACROSS MINNESOTA  *****

CITY           SKY/WX    TMP DP  RH WIND       PRES   REMARKS
DULUTH         LGT SNOW  33  31  92 W14       29.43S FOG     WCI  23
INTRNTL FALLS  CLOUDY    34  32  92 W6        29.38R FOG
ELY            CLOUDY    32  30  93 S3        29.39S
CLOQUET        FLURRIES  34  32  93 W12       29.44S
WHEATON        CLOUDY    37  28  70 W21       29.69S
BRAINERD       LGT SNOW  33  30  88 W18G25    29.52S FOG     WCI  22
HIBBING        MIX PCPN  32  31  96 W7        29.41R
ALEXANDRIA     SUNNY     35  25  66 W23G35    29.61S WCI  23
SAINT CLOUD    CLOUDY    37  26  64 W22G32    29.58S
MINNEAPOLIS    PTSUNNY   37  26  64 W16G25    29.63S
$$

  *****  WEATHER ACROSS SOUTH DAKOTA  *****

CITY           SKY/WX    TMP DP  RH WIND       PRES   REMARKS
SIOUX FALLS    MOSUNNY   35  26  69 W16G23    29.84S
BROOKINGS      SUNNY     35  26  69 W24G30    29.77S WCI  23
WATERTOWN      MOSUNNY   34  24  67 W22G30    29.73F WCI  22
HURON          SUNNY     36  26  67 W23       29.85F
SISSETON         N/A     36  25  64 NW21G32   29.68S
ABERDEEN       PTSUNNY   37  24  59 W26G32    29.77F
MITCHELL       MOSUNNY   37  28  70 W18       29.90S
PIERRE         MOCLDY    38  18  44 NW35G45   29.92S
MOBRIDGE       LGT SNOW  33  28  81 NW25G38   29.84R WCI  20
RAPID CITY     CLEAR     35  11  36 NW49G59   30.11S WCI  19
$$

  *****  SOME WEATHER IN NEARBY STATES *****

CITY           SKY/WX    TMP DP  RH WIND       PRES   REMARKS
GLASGOW MT     CLEAR     28  17  63 NW22G32   30.23R WCI  14
GREAT FALLS MT PTCLDY    21  15  78 SW10      30.42R WCI  10
CHEYENNE WY    MOCLDY    23  17  78 N14       30.22R WCI  11
SCOTTSBLUFF NE CLOUDY    30  23  75 NW20      30.27R WCI  17
OMAHA NE       MOSUNNY   40  25  55 NW17      29.98R
DES MOINES IA  MOSUNNY   39  26  59 NW17      29.89R
DAVENPORT IA   PTSUNNY   37  28  70 SW15      29.81S
CHICAGO IL     CLOUDY    39  29  67 SW17      29.81F
EAU CLAIRE WI  CLOUDY    35  28  75 W13       29.60S
LA CROSSE WI   PTSUNNY   35  27  72 SW10      29.69S
$$

  *****  SOME NATIONAL WEATHER *****

CITY           SKY/WX    TMP DP  RH WIND       PRES   REMARKS
LA GUARDIA NY  MOSUNNY   42  23  46 CALM      30.17F
RALEIGH NC     CLOUDY    38  23  55 NE13      30.07F
ATLANTA GA     SUNNY     41  23  48 NW9       30.17R
NEW ORLEANS LA SUNNY     52  33  48 NE5       30.32R
OKLAHOMA CITY  CLOUDY    38  30  73 SW12      30.16R
ALBUQUERQUE NM SUNNY     35  16  45 N7        30.38R
SALT LAKE CITY MOCLDY    24  18  77 SE7       30.56R WCI  16
LOS ANGELES CA CLEAR     56  26  31 NE6       30.13S
BOISE ID       CLOUDY    29  27  92 CALM      30.57R FOG
SEATTLE WA     CLOUDY    37  33  85 NW3       30.53R
$$

*** WEATHER ACROSS MANITOBA...SASKATCHEWAN AND ONTARIO ***
                ***ONTARIO***

CITY           SKY/WX    TMP DP  RH WIND       PRES   REMARKS
GERALDTON      LGT SNOW   1  -4  78 E15G21    29.72F VSB 3/4 WCI -18
THUNDER BAY    CLOUDY    25  25 100 E15       29.53S WCI  12
SIOUX LOOKOUT  LGT SNOW  12   9  85 E7        29.47R VSB 1   WCI   2
TORONTO        CLOUDY    36  27  69 S6        30.01F
BIG TROUT LK   CLEAR    -15 -20  76 E10G17    29.95S WCI -35
PICKLE LAKE    LGT SNOW   1  -6  71 E17G25    29.66S DRFTSNOWWCI -19
DRYDEN         FLURRIES  19  18  93 E13       29.40S WCI   7
KENORA         LGT SNOW  28  27  93 N5        29.37R VSB 3/4 WCI  23
$$
                *** MANITOBA***

CITY           SKY/WX    TMP DP  RH WIND       PRES   REMARKS
BRANDON        FLURRIES  21  18  86 N17G24    29.74R WCI   7
DAUPHIN        LGT SNOW  14   7  73 N26G32    29.84R WCI  -6
ISLAND LAKE    FLURRIES  -2  -8  78 E8        29.76R WCI -17
PILOT MOUND      N/A     21  19  93 N22G29      N/A  WCI   5
THE PAS        MOCLDY     3  -4  72 NW13G22   29.94R WCI -14
THOMPSON       LGT SNOW  -9 -15  77 N8        29.89R WCI -26
WINNIPEG       LGT SNOW  21  19  93 NW30      29.58R VSB 1   WCI   3
LYNN LAKE      FLURRIES  -6 -11  77 N12G17    29.92R WCI -24
CHURCHILL      CLOUDY   -13 -20  70 SE12      30.16S WCI -33
GILLAM         CLOUDY   -13 -22  64 E8        29.99  WCI -30
$$
                ***SASKATCHEWAN***

CITY           SKY/WX    TMP DP  RH WIND       PRES   REMARKS
ESTEVAN        CLOUDY    23  16  74 NW43G52   29.94R WCI   3
KINDERSLEY     CLEAR     21  14  73 W14G21    30.23R WCI   8
LLOYDMINSTER   CLEAR     23  16  74 W16       30.19R WCI  10
PRINCE ALBERT  CLOUDY    21  14  73 NW15G22   30.07R WCI   8
REGINA         MOCLDY    23  19  86 NW18G28   30.03R WCI   9
YORKTON        LGT SNOW  16   9  73 NW30G41   29.92R WCI  -4
N. BATTLEFORD  CLEAR     25  18  74 W16G22    30.18R WCI  12
LA RONGE       FLURRIES  12   7  79 W15       30.04R WCI  -4
SASKATOON      CLEAR     23  18  80 NW17      30.14R WCI   9
SWIFT CURRENT  CLEAR     23  18  80 NW23G29   30.19R WCI   7
$$
NOTE: THESE ARE AUTOMATED STATIONS WITH LIMITED QUALITY CONTROL
      "FAIR" INDICATES FEW OR NO CLOUDS BELOW 12,000 FEET WITH NO
      SIGNIFICANT WEATHER AND/OR OBSTRUCTIONS TO VISIBILITY.
      SKY/WX - SKY CONDITION AND SIGNIFICANT WEATHER.
      TMP - AIR TEMPERATURE.    DP   - DEWPOINT TEMPERATURE.
      RH  - RELATIVE HUMIDITY.  PRES - PRESSURE.
      HX  - HEAT INDEX.         WCI  - WIND CHILL INDEX.
$



USA.gov is the U.S. government's official web portal to all federal, state and local government web resources and services.